{"data":{"norad_id":66185,"intl_designator":"2025-243J","name":"STARLINK-35377","alt_names":[],"object_type":"PAYLOAD","status":"ACTIVE","operator":null,"country":"US","launch_date":"2025-10-26","launch_site_code":"AFETR","launch_vehicle":null,"mission":null,"orbit_class":"UNKNOWN","rcs_meters":null,"size_class":null,"mass_kg":null,"dimensions":null,"purposes":["comms"],"wikipedia_slug":null,"has_3d_model":false,"image_url":null,"decayed_at":null,"tle_current":{"epoch":"2026-05-24T23:57:00.243072Z","epoch_age_seconds":75560,"freshness":"FRESH","line1":"1 66185U 25243J   26144.99791948  .00023835  00000+0  81430-3 0  9994","line2":"2 66185  53.1566 251.0437 0001231  79.4917 280.6222 15.30199103 32335","mean_motion":15.30199103,"eccentricity":0.0001231,"inclination_deg":53.1566,"raan_deg":251.0437,"arg_perigee_deg":79.4917,"mean_anomaly_deg":280.6222,"bstar":0.0008143,"rev_number":3233,"period_min":94.10540087083,"perigee_km":474.37409973151,"apogee_km":476.06139567039,"semimajor_km":6853.3547477009,"source":"CELESTRAK","updated_at":"2026-05-25T13:38:21.077071Z"}}}